Hourly Data Report for August 07, 2019

QUALICUM BEACH AIRPORT
BRITISH COLUMBIA
Current Station Operator: ECCC - MSC

49°20'14.000" N
124°23'38.000" W
58.20 m
1026562
71766
VOQ

Download Data

Hourly Data (August 2019)
Hourly Data Report for August 7, 2019
TIME
LST
Temp Definition
°C
Dew Point Definition
°C
Rel Hum Definition
%
Precip. Amount Definition
mm

Wind Dir Definition
10's deg

Wind Spd Definition
km/h
Visibility Definition
km
Stn Press Definition
kPa
Hmdx Definition


Wind Chill Definition


Weather Definition


00:00 16.8 13.1 79 0.0 22 2   100.58     LegendNANA
01:00 17.2 13.2 77 0.0 27 3   100.60     LegendNANA
02:00 16.4 13.3 82 0.0 26 2   100.61     LegendNANA
03:00 14.5 12.6 88 0.0 0 1   100.62     LegendNANA
04:00 14.0 12.3 90 0.0 0 1   100.64     LegendNANA
05:00 13.5 11.9 90 0.0 25 1   100.65     LegendNANA
06:00 14.7 12.6 87 0.0 26 2   100.68     LegendNANA
07:00 18.9 14.6 76 0.0 16 1   100.69     LegendNANA
08:00 21.7 12.5 56 0.0 4 4   100.70     LegendNANA
09:00 21.7 13.6 60 0.0 2 5   100.69 25   LegendNANA
10:00 22.1 14.0 60 0.0 11 10   100.67 25   LegendNANA
11:00 22.1 14.6 63 0.0 9 12   100.66 26   LegendNANA
12:00 22.4 14.6 61 0.0 10 13   100.64 26   LegendNANA
13:00 22.3 14.3 61 0.0 9 12   100.60 26   LegendNANA
14:00 24.2 14.2 54 0.0 10 11   100.55 28   LegendNANA
15:00 24.3 14.3 54 0.0 7 10   100.50 28   LegendNANA
16:00 24.5 13.8 52 0.0 10 11   100.45 28   LegendNANA
17:00 24.8 15.2 55 0.0 7 5   100.39 29   LegendNANA
18:00 24.1 15.2 58 0.0 7 5   100.35 28   LegendNANA
19:00 22.3 16.8 71 0.0 5 3   100.36 27   LegendNANA
20:00 19.8 16.8 83 0.0 6 2   100.39     LegendNANA
21:00 18.9 16.3 85 0.0 29 1   100.44     LegendNANA
22:00 17.8 16.0 89 0.0 0 1   100.47     LegendNANA
23:00 17.6 15.9 90 0.0 29 3   100.53     LegendNANA

Notes on Data Quality.

Legend

  • E = Estimated
  • M = Missing
  • NA = Not Available*
  • [empty] = Indicates an unobserved value
Date modified: